Juliana Airport, Sint Maarten

8:23 AM AST on April 28, 2017 (GMT -0400)
Princess Juliana International

Weather History for TNCM - December, 2012

Change the Weather History Date:

Monday, December 17, 2012

  Actual Average Record
Temperature  
Mean Temperature 80 °F -  
Max Temperature 84 °F 81 °F 86 °F (1998)
Min Temperature 76 °F 72 °F 69 °F (2008)
Cooling Degree Days 15    
Growing Degree Days 30 (Base 50)    
Moisture  
Dew Point 67 °F    
Average Humidity 63    
Maximum Humidity 78    
Minimum Humidity 46    
Precipitation  
Precipitation 0.00 in 0.10 in - ()
Sea Level Pressure  
Sea Level Pressure 29.97 in    
Wind  
Wind Speed 9 mph ()    
Max Wind Speed 15 mph    
Max Gust Speed 28 mph    
Visibility 6.7 miles    
Events      
Averages and records for this station are not official NWS values.
T = Trace of Precipitation, MM = Missing Value Source: Averaged Metar Reports

Daily Weather History Graph

Daily Weather History Graph

Search for Another Location

Airport or City:

Trip Planner

Search our weather history database for the weather conditions in past years. The results will help you decide how hot, cold, wet, or windy it might be!

Date:

Astronomy

Dec. 17, 2012 Rise Set
Actual Time 6:37 AM AST 5:40 PM AST
Civil Twilight 6:13 AM AST 6:04 PM AST
Nautical Twilight 5:46 AM AST 6:31 PM AST
Astronomical Twilight 5:19 AM AST 6:58 PM AST
Moon 10:16 AM AST (12/17) 10:19 PM AST (12/17)
Length of Visible Light 11h 50m
Length of Day
11h 03m
Waxing Crescent, 24% of the Moon is Illuminated
Dec 17
Waxing Crescent
Dec 20
First Quarter
Dec 28
Full
Jan 4
Last Quarter
Jan 11
New

Hourly Weather History & Observations

Time (AST) Temp. Heat Index Dew Point Humidity Pressure Visibility Wind Dir Wind Speed Gust Speed Precip Events Conditions
12:00 AM 77.0 °F - 64.4 °F 65% 29.95 in 6.2 mi East 11.5 mph - N/A   Partly Cloudy
1:00 AM 77.0 °F - 64.4 °F 65% 29.95 in 6.2 mi East 9.2 mph - N/A   Partly Cloudy
2:00 AM 77 °F - 66 °F 60% 29.95 in 44 mi East 8.1 mph - -   Scattered Clouds
2:00 AM 77.0 °F - 66.2 °F 69% 29.95 in 6.2 mi East 8.1 mph - N/A   Partly Cloudy
3:00 AM 77.0 °F - 64.4 °F 65% 29.92 in 6.2 mi East 11.5 mph - N/A   Partly Cloudy
4:00 AM 77.0 °F - 66.2 °F 69% 29.95 in 6.2 mi ENE 10.4 mph - N/A   Partly Cloudy
5:00 AM 77 °F - 65 °F 58% 29.97 in 44 mi ENE 8.1 mph - -   Scattered Clouds
5:00 AM 77.0 °F - 64.4 °F 65% 29.95 in 6.2 mi ENE 8.1 mph - N/A   Partly Cloudy
6:00 AM 77.0 °F - 64.4 °F 65% 29.98 in 6.2 mi ENE 10.4 mph - N/A   Partly Cloudy
7:00 AM 77.0 °F - 64.4 °F 65% 29.98 in 6.2 mi East 9.2 mph - N/A   Partly Cloudy
8:00 AM 80 °F - 66 °F 54% 30.00 in 44 mi East 9.2 mph - -   Scattered Clouds
8:00 AM 80.6 °F 82.7 °F 66.2 °F 61% 29.98 in 6.2 mi East 9.2 mph - N/A   Partly Cloudy
9:00 AM 80.6 °F 82.7 °F 66.2 °F 61% 30.01 in 6.2 mi East 12.7 mph - N/A   Scattered Clouds
10:00 AM 82.4 °F 84.6 °F 66.2 °F 58% 30.01 in 6.2 mi East 12.7 mph 27.6 mph N/A   Scattered Clouds
11:00 AM 83 °F - 65 °F 46% 30.01 in 44 mi East 13.8 mph - -   Scattered Clouds
11:00 AM 82.4 °F 84.6 °F 66.2 °F 58% 30.01 in 6.2 mi East 13.8 mph - N/A   Partly Cloudy
12:00 PM 84.2 °F 86.6 °F 66.2 °F 55% 30.01 in 6.2 mi ENE 15.0 mph - N/A   Partly Cloudy
1:00 PM 82.4 °F 84.6 °F 66.2 °F 58% 29.95 in 6.2 mi East 11.5 mph - N/A   Partly Cloudy
2:00 PM 83 °F - 68 °F 52% 29.96 in 44 mi East 11.5 mph - -   Partly Cloudy
2:00 PM 82.4 °F 85.4 °F 68.0 °F 62% 29.95 in 6.2 mi East 11.5 mph - N/A   Scattered Clouds
3:00 PM 82.4 °F 85.4 °F 68.0 °F 62% 29.92 in 6.2 mi East 8.1 mph - N/A   Mostly Cloudy
4:00 PM 82.4 °F 86.3 °F 69.8 °F 66% 29.92 in 6.2 mi East 8.1 mph - N/A   Scattered Clouds
5:00 PM 80 °F - 70 °F 64% 29.94 in 31 mi East 6.9 mph - -   Mostly Cloudy
5:00 PM 80.6 °F 83.9 °F 69.8 °F 70% 29.92 in 6.2 mi East 6.9 mph - N/A   Mostly Cloudy
6:00 PM 80.6 °F 83.9 °F 69.8 °F 70% 29.95 in 6.2 mi ENE 6.9 mph - N/A   Mostly Cloudy
8:00 PM 80.6 °F 83.9 °F 69.8 °F 70% 29.95 in 6.2 mi East 11.5 mph - N/A   Mostly Cloudy
9:00 PM 80.6 °F 83.9 °F 69.8 °F 70% 29.98 in 6.2 mi ENE 11.5 mph - N/A   Mostly Cloudy
10:00 PM 78.8 °F - 69.8 °F 74% 29.98 in 6.2 mi ENE 10.4 mph - N/A   Mostly Cloudy
11:00 PM 80 °F - 71 °F 66% 29.99 in 19 mi East 11.5 mph - -   Mostly Cloudy
11:00 PM 78.8 °F - 71.6 °F 78% 29.98 in 6.2 mi East 11.5 mph - N/A   Scattered Clouds